Port Lavaca, TX

7:39 PM CDT on October 17, 2017 (GMT -0500)
Port Lavaca

Weather History for KPKV - January, 2013

Change the Weather History Date:

Monday, January 7, 2013

  Actual Average (KVCT) Record (KVCT)
Temperature  
Mean Temperature 48 °F -  
Max Temperature 60 °F 60 °F 85 °F (1923)
Min Temperature 35 °F 43 °F 20 °F (1970)
Degree Days  
Heating Degree Days 18    
Moisture  
Dew Point 45 °F    
Average Humidity 83    
Maximum Humidity 100    
Minimum Humidity 63    
Precipitation  
Precipitation 0.00 in - - ()
Sea Level Pressure  
Sea Level Pressure 30.17 in    
Wind  
Wind Speed 8 mph (ENE)    
Max Wind Speed 16 mph    
Max Gust Speed -    
Visibility 9 miles    
Events      
Averages and records for this station are not official NWS values.
T = Trace of Precipitation, MM = Missing Value Source: NWS Daily Summary

Daily Weather History Graph

Daily Weather History Graph

Search for Another Location

Airport or City:

Trip Planner

Search our weather history database for the weather conditions in past years. The results will help you decide how hot, cold, wet, or windy it might be!

Date:

Astronomy

Jan. 07, 2013 Rise Set
Actual Time 7:20 AM CST 5:45 PM CST
Civil Twilight 6:54 AM CST 6:11 PM CST
Nautical Twilight 6:25 AM CST 6:40 PM CST
Astronomical Twilight 5:57 AM CST 7:09 PM CST
Moon 2:51 AM CST (1/7) 1:53 PM CST (1/7)
Length of Visible Light 11h 16m
Length of Day
10h 25m
Waning Crescent, 22% of the Moon is Illuminated
Jan 7
Waning Crescent
Jan 11
New
Jan 18
First Quarter
Jan 26
Full
Feb 3
Last Quarter

Hourly Weather History & Observations

Time (CST) Temp. Windchill Dew Point Humidity Pressure Visibility Wind Dir Wind Speed Gust Speed Precip Events Conditions
3:35 AM 35.6 °F 30.7 °F 33.8 °F 93% 30.29 in 10.0 mi North 5.8 mph - N/A   Clear
3:55 AM 35.6 °F 30.7 °F 33.8 °F 93% 30.29 in 7.0 mi North 5.8 mph - N/A   Clear
4:15 AM 35.6 °F 31.7 °F 35.6 °F 100% 30.28 in 7.0 mi North 4.6 mph - N/A   Clear
4:55 AM 35.6 °F 30.7 °F 33.8 °F 93% 30.26 in 5.0 mi North 5.8 mph - N/A   Clear
5:15 AM 35.6 °F 30.7 °F 33.8 °F 93% 30.26 in 7.0 mi North 5.8 mph - N/A   Clear
5:35 AM 35.6 °F 30.7 °F 33.8 °F 93% 30.25 in 5.0 mi NNE 5.8 mph - N/A   Clear
5:55 AM 35.6 °F 30.7 °F 35.6 °F 100% 30.25 in 5.0 mi NNE 5.8 mph - N/A   Clear
6:15 AM 37.4 °F 32.1 °F 35.6 °F 93% 30.25 in 5.0 mi NNE 6.9 mph - N/A   Clear
6:35 AM 37.4 °F 32.8 °F 35.6 °F 93% 30.26 in 7.0 mi North 5.8 mph - N/A   Clear
6:55 AM 35.6 °F 29.2 °F 35.6 °F 100% 30.27 in 5.0 mi North 8.1 mph - N/A   Clear
7:15 AM 35.6 °F 31.7 °F 33.8 °F 93% 30.26 in 5.0 mi North 4.6 mph - N/A   Clear
7:35 AM 35.6 °F 29.2 °F 35.6 °F 100% 30.26 in 4.0 mi North 8.1 mph - N/A   Clear
9:35 AM 44.6 °F 39.7 °F 42.8 °F 93% 30.28 in 7.0 mi NE 9.2 mph - N/A   Clear
9:55 AM 48.2 °F - 42.8 °F 82% 30.27 in 10.0 mi ENE 11.5 mph - N/A   Clear
10:15 AM 48.2 °F - 42.8 °F 82% 30.27 in 10.0 mi NE 10.4 mph - N/A   Clear
10:35 AM 51.8 °F - 44.6 °F 76% 30.28 in 10.0 mi NE 8.1 mph - N/A   Clear
10:55 AM 53.6 °F - 44.6 °F 72% 30.27 in 10.0 mi NE 9.2 mph - N/A   Clear
11:35 AM 55.4 °F - 46.4 °F 72% 30.25 in 10.0 mi NE 6.9 mph - N/A   Clear
11:55 AM 55.4 °F - 46.4 °F 72% 30.24 in 10.0 mi NE 9.2 mph - N/A   Clear
12:35 PM 59.0 °F - 46.4 °F 63% 30.20 in 10.0 mi ENE 8.1 mph - N/A   Clear
12:55 PM 59.0 °F - 46.4 °F 63% 30.19 in 10.0 mi East 8.1 mph - N/A   Clear
1:15 PM 59.0 °F - 48.2 °F 67% 30.17 in 10.0 mi East 6.9 mph - N/A   Clear
1:55 PM 60.8 °F - 50.0 °F 68% 30.14 in 10.0 mi East 10.4 mph - N/A   Clear
2:15 PM 59.0 °F - 48.2 °F 67% 30.13 in 10.0 mi ESE 11.5 mph - N/A   Clear
2:35 PM 60.8 °F - 50.0 °F 68% 30.13 in 10.0 mi ESE 10.4 mph - N/A   Clear
2:55 PM 60.8 °F - 50.0 °F 68% 30.13 in 10.0 mi ESE 11.5 mph - N/A   Clear
3:15 PM 59.0 °F - 50.0 °F 72% 30.12 in 10.0 mi ESE 15.0 mph - N/A   Clear
3:35 PM 59.0 °F - 50.0 °F 72% 30.11 in 10.0 mi ESE 11.5 mph - N/A   Clear
3:55 PM 59.0 °F - 50.0 °F 72% 30.11 in 10.0 mi ESE 11.5 mph - N/A   Clear
4:15 PM 59.0 °F - 50.0 °F 72% 30.12 in 10.0 mi East 11.5 mph - N/A   Scattered Clouds
4:35 PM 57.2 °F - 50.0 °F 77% 30.12 in 10.0 mi East 9.2 mph - N/A   Clear
4:55 PM 55.4 °F - 50.0 °F 82% 30.11 in 10.0 mi East 8.1 mph - N/A   Clear
5:15 PM 55.4 °F - 50.0 °F 82% 30.11 in 10.0 mi ESE 10.4 mph - N/A   Scattered Clouds
5:35 PM 55.4 °F - 50.0 °F 82% 30.11 in 10.0 mi East 10.4 mph - N/A   Mostly Cloudy
5:55 PM 55.4 °F - 50.0 °F 82% 30.10 in 10.0 mi East 9.2 mph - N/A   Scattered Clouds
6:15 PM 53.6 °F - 50.0 °F 88% 30.09 in 10.0 mi East 5.8 mph - N/A   Clear
6:35 PM 53.6 °F - 50.0 °F 88% 30.11 in 10.0 mi ESE 6.9 mph - N/A   Clear
6:55 PM 53.6 °F - 50.0 °F 88% 30.11 in 10.0 mi ENE 3.5 mph - N/A   Scattered Clouds
7:15 PM 53.6 °F - 50.0 °F 88% 30.13 in 10.0 mi Calm Calm - N/A   Mostly Cloudy
7:35 PM 53.6 °F - 50.0 °F 88% 30.12 in 10.0 mi East 5.8 mph - N/A   Overcast
7:55 PM 53.6 °F - 50.0 °F 88% 30.11 in 10.0 mi ENE 9.2 mph - N/A   Overcast
8:15 PM 53.6 °F - 48.2 °F 82% 30.11 in 10.0 mi ENE 9.2 mph - N/A   Overcast
8:35 PM 53.6 °F - 48.2 °F 82% 30.12 in 10.0 mi East 8.1 mph - N/A   Overcast
8:55 PM 53.6 °F - 48.2 °F 82% 30.11 in 10.0 mi NE 10.4 mph - N/A   Overcast
9:15 PM 51.8 °F - 46.4 °F 82% 30.09 in 10.0 mi East 12.7 mph - N/A   Mostly Cloudy
9:35 PM 51.8 °F - 48.2 °F 88% 30.07 in 10.0 mi East 16.1 mph - N/A   Mostly Cloudy
9:55 PM 51.8 °F - 46.4 °F 82% 30.08 in 10.0 mi ENE 12.7 mph - N/A   Overcast
10:15 PM 51.8 °F - 46.4 °F 82% 30.07 in 10.0 mi ENE 11.5 mph - N/A   Overcast
10:35 PM 51.8 °F - 48.2 °F 88% 30.07 in 10.0 mi ENE 9.2 mph - N/A   Overcast
10:55 PM 51.8 °F - 46.4 °F 82% 30.06 in 10.0 mi ENE 11.5 mph - N/A   Overcast
11:15 PM 51.8 °F - 46.4 °F 82% 30.07 in 10.0 mi ENE 9.2 mph - N/A   Overcast
11:35 PM 51.8 °F - 46.4 °F 82% 30.06 in 10.0 mi NE 9.2 mph - N/A   Overcast
11:55 PM 51.8 °F - 48.2 °F 88% 30.05 in 10.0 mi NE 8.1 mph - N/A   Overcast